Regional Weather Roundup
Issued by NWS Cleveland, OH

Home | Current Version | Previous Version | Graphics & Text | Print | Product List | Glossary On
Versions: 1 2 3 4 5 6 7 8 9 10 11 12 13 14 15 16 17 18 19 20 21 22 23 24 25 26 27 28 29 30 31 32 33 34 35 36 37 38 39 40 41 42 43 44 45 46 47 48 49 50
000
ASUS41 KCLE 250812
RWRCLE
OHIO REGIONAL WEATHER ROUNDUP
NATIONAL WEATHER SERVICE WILMINGTON, OH
400 AM EDT THU MAY 25 2017

NOTE: "FAIR" INDICATES FEW OR NO CLOUDS BELOW 12,000 FEET WITH NO
SIGNIFICANT WEATHER AND/OR OBSTRUCTIONS TO VISIBILITY.

OHZ001>008-015>018-024>027-034-035-043-044-250900-
   NORTHWEST OHIO

CITY           SKY/WX    TMP DP  RH WIND       PRES   REMARKS
DEFIANCE       CLOUDY    59  57  93 NE8G17    29.39S
FINDLAY        MOCLDY    62  57  83 E8        29.37S
TOLEDO EXPRESS CLOUDY    59  59 100 NE13      29.41R
TOLEDO EXEC    CLOUDY    60  59  96 NE9       29.42S
LIMA           LGT RAIN  61  60  97 E8        29.35F
$$

OHZ009>014-019>023-028>033-038-089-250900-
   NORTHEAST OHIO

CITY           SKY/WX    TMP DP  RH WIND       PRES   REMARKS
CLE-HOPKINS    CLOUDY    63  56  78 SE14      29.45F
CLE-LAKEFRONT  FAIR      62  55  77 SE15G24   29.43F
CUY CO. ARPT   NOT AVBL
LORAIN-ELYRIA    N/A    N/A N/A N/A MISG      29.43F
ASHTABULA      MOCLDY    59  56  89 SE12G17   29.51S
AKRON-CANTON   CLOUDY    60  55  83 SE10      29.46F
WOOSTER        CLOUDY    59  56  89 SE10      29.45S
MANSFIELD      CLOUDY    60  58  92 SE10      29.42S
YOUNGSTOWN     LGT RAIN  57  54  89 SE13      29.51S
$$

OHZ042-051>053-060>062-070>072-077>081-250900-
  SOUTHWEST OHIO

CITY           SKY/WX    TMP DP  RH WIND       PRES   REMARKS
CINC-COVINGTON LGT RAIN  59  57  93 SW7       29.39S
CINC-LUNKEN    LGT RAIN  59  59 100 S6        29.39S
HAMILTON       RAIN      59  21  23 SW6       29.39R
DAYTON         CLOUDY    59  58  96 SW8       29.37R
WRIGHT-PAT AFB CLOUDY    60  60 100 SW7       29.36R
DAYTON GENERAL CLOUDY    59  58  96 SW9       29.36S
WILMINGTON     LGT RAIN  58  58 100 SW6       29.38R FOG
$$

OHZ036-037-039>041-045>050-054>059-063>069-073>076-082>088-250900-
  CENTRAL AND SOUTHEAST OHIO

CITY           SKY/WX    TMP DP  RH WIND       PRES   REMARKS
COLUMBUS       CLOUDY    62  58  86 SE10      29.39R
OSU AIRPORT    CLOUDY    62  58  86 SE13G20   29.38S
BOLTON FIELD   RAIN      60  58  94 S9        29.39S
RICKENBACK AFB CLOUDY    60  57  91 S13       29.39S
NEWARK         CLOUDY    62  55  77 S9        29.41S
MARION         CLOUDY    62  58  86 SE14      29.39F
LANCASTER      LGT RAIN  61  57  87 S12       29.41S FOG
ZANESVILLE     CLOUDY    61  58  90 S9        29.43S
NEW PHILLY     CLOUDY    60  58  92 SE10      29.45F
$$




USA.gov is the U.S. government's official web portal to all federal, state and local government web resources and services.